Volver al catálogo

CZ-12 R/B

ActivoLEO
NORAD 65115·ROCKET BODY·🇨🇳 China

Lanzado Aug 4, 2025 desde Wenchang Space Launch Site

Loading…

Próximos Pases (próximas 24 horas)

TLE

ActualizadoSource: Space-Track

Época: Sep 14, 2026, 03:08 UTC

1 65115U 25168K   26257.13081055 -.00000129  00000-0  13626-4 0  9990
2 65115  49.9827 169.7681 0076468  75.2394 285.6974 14.16540076 57511

Sigue CZ-12 R/B en tiempo real con AllMySat

Download on the App Store